| time (UTC) | temp C | wind direction | speed KPH | gust KPH | rain 1hr cm | rain 24hr cm | rain mn cm | humidity % | barometer mb |
| 20260505022503 | 13 | 171 | 0.0 | 3.2 | 0.00 | 0.00 | 0.00 | 72 | 1014.3 |
| 20260505022003 | 13 | 171 | 0.0 | 3.2 | 0.00 | 0.00 | 0.00 | 71 | 1014.2 |
| 20260505021506 | 13 | 175 | 0.0 | 3.2 | 0.00 | 0.00 | 0.00 | 71 | 1014.0 |
| 20260505021002 | 13 | 194 | 0.0 | 4.8 | 0.00 | 0.00 | 0.00 | 71 | 1013.9 |
| 20260505020506 | 13 | 200 | 1.6 | 4.8 | 0.00 | 0.00 | 0.00 | 70 | 1013.9 |
| 20260505020004 | 13 | 191 | 1.6 | 3.2 | 0.00 | 0.00 | 0.00 | 69 | 1013.8 |
| 20260505015502 | 13 | 191 | 1.6 | 3.2 | 0.00 | 0.00 | 0.00 | 69 | 1013.9 |
| 20260505015004 | 13 | 191 | 0.0 | 3.2 | 0.00 | 0.00 | 0.00 | 68 | 1013.8 |
| 20260505014508 | 14 | 191 | 0.0 | 3.2 | 0.00 | 0.00 | 0.00 | 68 | 1013.9 |
| 20260505014005 | 14 | 191 | 0.0 | 3.2 | 0.00 | 0.00 | 0.00 | 67 | 1013.9 |
| 20260505013502 | 14 | 191 | 0.0 | 3.2 | 0.00 | 0.00 | 0.00 | 66 | 1013.9 |
| 20260505013003 | 15 | 191 | 0.0 | 3.2 | 0.00 | 0.00 | 0.00 | 66 | 1013.8 |
| 20260505012502 | 15 | 191 | 0.0 | 3.2 | 0.00 | 0.00 | 0.00 | 65 | 1013.6 |
| 20260505012003 | 15 | 191 | 0.0 | 3.2 | 0.00 | 0.00 | 0.00 | 64 | 1013.5 |
| 20260505011504 | 15 | 222 | 0.0 | 3.2 | 0.00 | 0.00 | 0.00 | 64 | 1013.5 |
| 20260505011003 | 15 | 222 | 0.0 | 3.2 | 0.00 | 0.00 | 0.00 | 64 | 1013.5 |
| 20260505010503 | 16 | 208 | 0.0 | 3.2 | 0.00 | 0.00 | 0.00 | 63 | 1013.6 |
| 20260505010005 | 16 | 212 | 0.0 | 3.2 | 0.00 | 0.00 | 0.00 | 61 | 1013.6 |
| 20260505005504 | 16 | 212 | 0.0 | 3.2 | 0.00 | 0.00 | 0.00 | 60 | 1013.6 |
| 20260505005004 | 17 | 212 | 0.0 | 3.2 | 0.00 | 0.00 | 0.00 | 59 | 1013.6 |
| 20260505004519 | 17 | 212 | 0.0 | 3.2 | 0.00 | 0.00 | 0.00 | 59 | 1013.6 |
| 20260505004005 | 18 | 212 | 1.6 | 3.2 | 0.00 | 0.00 | 0.00 | 58 | 1013.6 |
| 20260505003507 | 18 | 248 | 0.0 | 3.2 | 0.00 | 0.00 | 0.00 | 54 | 1013.6 |
| 20260505003010 | 19 | 248 | 0.0 | 3.2 | 0.00 | 0.00 | 0.00 | 54 | 1013.6 |
| 20260505002503 | 20 | 248 | 0.0 | 4.8 | 0.00 | 0.00 | 0.00 | 52 | 1013.6 |
| 20260505002003 | 20 | 248 | 0.0 | 4.8 | 0.00 | 0.00 | 0.00 | 53 | 1013.7 |
| 20260505001504 | 21 | 252 | 3.2 | 4.8 | 0.00 | 0.00 | 0.00 | 48 | 1013.7 |
| 20260505001002 | 21 | 265 | 1.6 | 11.3 | 0.00 | 0.00 | 0.00 | 48 | 1013.6 |
| 20260505000504 | 21 | 250 | 3.2 | 11.3 | 0.00 | 0.00 | 0.00 | 46 | 1013.8 |
| 20260505000006 | 22 | 242 | 3.2 | 11.3 | 0.00 | 0.00 | 0.00 | 45 | 1013.6 |
| 20260504235502 | 22 | 225 | 4.8 | 14.5 | 0.00 | 0.00 | 0.00 | 42 | 1013.6 |
| 20260504235004 | 22 | 227 | 4.8 | 14.5 | 0.00 | 0.00 | 0.00 | 42 | 1013.6 |
| 20260504234507 | 22 | 253 | 4.8 | 12.9 | 0.00 | 0.00 | 0.00 | 40 | 1013.7 |
| 20260504234006 | 23 | 242 | 4.8 | 9.7 | 0.00 | 0.00 | 0.00 | 41 | 1013.7 |
| 20260504233504 | 23 | 236 | 3.2 | 9.7 | 0.00 | 0.00 | 0.00 | 39 | 1013.8 |
| 20260504233003 | 23 | 238 | 4.8 | 16.1 | 0.00 | 0.00 | 0.00 | 38 | 1013.9 |
| 20260504232508 | 23 | 240 | 9.7 | 16.1 | 0.00 | 0.00 | 0.00 | 35 | 1013.9 |
| 20260504232004 | 24 | 261 | 3.2 | 12.9 | 0.00 | 0.00 | 0.00 | 37 | 1013.8 |
| 20260504231511 | 24 | 252 | 3.2 | 12.9 | 0.00 | 0.00 | 0.00 | 39 | 1013.8 |
| 20260504231004 | 24 | 252 | 4.8 | 14.5 | 0.00 | 0.00 | 0.00 | 36 | 1013.9 |
| 20260504230503 | 24 | 232 | 3.2 | 14.5 | 0.00 | 0.00 | 0.00 | 36 | 1014.0 |
| 20260504230005 | 24 | 254 | 9.7 | 14.5 | 0.00 | 0.00 | 0.00 | 33 | 1014.0 |
| 20260504225507 | 25 | 192 | 4.8 | 14.5 | 0.00 | 0.00 | 0.00 | 33 | 1014.0 |
| 20260504225004 | 25 | 254 | 8.0 | 14.5 | 0.00 | 0.00 | 0.00 | 34 | 1014.1 |
| 20260504224504 | 25 | 248 | 6.4 | 16.1 | 0.00 | 0.00 | 0.00 | 32 | 1014.0 |
| 20260504224003 | 25 | 219 | 4.8 | 16.1 | 0.00 | 0.00 | 0.00 | 33 | 1014.0 |
| 20260504223503 | 25 | 195 | 6.4 | 14.5 | 0.00 | 0.00 | 0.00 | 31 | 1013.9 |
| 20260504223009 | 25 | 257 | 6.4 | 16.1 | 0.00 | 0.00 | 0.00 | 30 | 1014.1 |
| 20260504222505 | 25 | 232 | 9.7 | 14.5 | 0.00 | 0.00 | 0.00 | 30 | 1014.2 |
| 20260504222006 | 25 | 76 | 3.2 | 12.9 | 0.00 | 0.00 | 0.00 | 33 | 1014.1 |
| 20260504221508 | 25 | 246 | 6.4 | 17.7 | 0.00 | 0.00 | 0.00 | 32 | 1014.2 |
| 20260504221003 | 25 | 226 | 9.7 | 17.7 | 0.00 | 0.00 | 0.00 | 32 | 1014.3 |
| 20260504220507 | 25 | 219 | 6.4 | 17.7 | 0.00 | 0.00 | 0.00 | 30 | 1014.2 |
| 20260504220006 | 25 | 238 | 9.7 | 19.3 | 0.00 | 0.00 | 0.00 | 27 | 1014.2 |
| 20260504215507 | 25 | 207 | 6.4 | 19.3 | 0.00 | 0.00 | 0.00 | 32 | 1014.2 |
| 20260504215005 | 25 | 218 | 6.4 | 17.7 | 0.00 | 0.00 | 0.00 | 31 | 1014.3 |
| 20260504214506 | 25 | 156 | 6.4 | 17.7 | 0.00 | 0.00 | 0.00 | 33 | 1014.4 |
| 20260504214004 | 25 | 218 | 3.2 | 20.9 | 0.00 | 0.00 | 0.00 | 32 | 1014.3 |
| 20260504213506 | 25 | 192 | 11.3 | 20.9 | 0.00 | 0.00 | 0.00 | 30 | 1014.3 |
| 20260504213006 | 25 | 175 | 9.7 | 17.7 | 0.00 | 0.00 | 0.00 | 33 | 1014.4 |
| 20260504212504 | 25 | 240 | 8.0 | 24.1 | 0.00 | 0.00 | 0.00 | 33 | 1014.2 |
| 20260504212007 | 25 | 237 | 6.4 | 24.1 | 0.00 | 0.00 | 0.00 | 30 | 1014.2 |
| 20260504211513 | 25 | 247 | 11.3 | 20.9 | 0.00 | 0.00 | 0.00 | 31 | 1014.2 |
| 20260504211007 | 26 | 213 | 8.0 | 19.3 | 0.00 | 0.00 | 0.00 | 30 | 1014.2 |
| 20260504210503 | 26 | 128 | 8.0 | 19.3 | 0.00 | 0.00 | 0.00 | 32 | 1014.3 |
| 20260504210018 | 26 | 219 | 4.8 | 17.7 | 0.00 | 0.00 | 0.00 | 30 | 1014.3 |
| 20260504205507 | 26 | 175 | 8.0 | 17.7 | 0.00 | 0.00 | 0.00 | 32 | 1014.4 |
| 20260504205004 | 26 | 189 | 3.2 | 17.7 | 0.00 | 0.00 | 0.00 | 32 | 1014.5 |
| 20260504204532 | 26 | 205 | 6.4 | 14.5 | 0.00 | 0.00 | 0.00 | 32 | 1014.6 |
| 20260504204004 | 26 | 299 | 6.4 | 16.1 | 0.00 | 0.00 | 0.00 | 31 | 1014.4 |
| 20260504203503 | 25 | 188 | 6.4 | 19.3 | 0.00 | 0.00 | 0.00 | 34 | 1014.3 |
| 20260504203003 | 25 | 223 | 6.4 | 20.9 | 0.00 | 0.00 | 0.00 | 36 | 1014.4 |
| 20260504202504 | 25 | 223 | 11.3 | 20.9 | 0.00 | 0.00 | 0.00 | 31 | 1014.5 |
| 20260504202002 | 25 | 146 | 3.2 | 11.3 | 0.00 | 0.00 | 0.00 | 35 | 1014.6 |
| 20260504201502 | 25 | 220 | 3.2 | 11.3 | 0.00 | 0.00 | 0.00 | 32 | 1014.7 |
| 20260504201004 | 25 | 211 | 6.4 | 16.1 | 0.00 | 0.00 | 0.00 | 32 | 1014.9 |
| 20260504200502 | 25 | 223 | 8.0 | 16.1 | 0.00 | 0.00 | 0.00 | 33 | 1014.9 |
| 20260504200008 | 25 | 157 | 4.8 | 9.7 | 0.00 | 0.00 | 0.00 | 37 | 1014.9 |
| 20260504195506 | 25 | 155 | 1.6 | 16.1 | 0.00 | 0.00 | 0.00 | 35 | 1014.9 |
| 20260504195002 | 25 | 327 | 6.4 | 19.3 | 0.00 | 0.00 | 0.00 | 31 | 1015.1 |
| 20260504194509 | 25 | 196 | 11.3 | 19.3 | 0.00 | 0.00 | 0.00 | 33 | 1015.2 |
| 20260504194003 | 25 | 264 | 3.2 | 9.7 | 0.00 | 0.00 | 0.00 | 31 | 1015.2 |
| 20260504193502 | 25 | 223 | 3.2 | 12.9 | 0.00 | 0.00 | 0.00 | 32 | 1015.2 |
| 20260504193010 | 25 | 223 | 4.8 | 17.7 | 0.00 | 0.00 | 0.00 | 34 | 1015.4 |
| 20260504192503 | 25 | 210 | 1.6 | 17.7 | 0.00 | 0.00 | 0.00 | 37 | 1015.5 |
| 20260504192005 | 24 | 205 | 6.4 | 20.9 | 0.00 | 0.00 | 0.00 | 36 | 1015.5 |
| 20260504191507 | 25 | 230 | 12.9 | 20.9 | 0.00 | 0.00 | 0.00 | 36 | 1015.5 |
| 20260504191003 | 25 | 261 | 8.0 | 17.7 | 0.00 | 0.00 | 0.00 | 37 | 1015.5 |
| 20260504190502 | 25 | 332 | 3.2 | 17.7 | 0.00 | 0.00 | 0.00 | 38 | 1015.6 |
| 20260504190007 | 25 | 265 | 3.2 | 17.7 | 0.00 | 0.00 | 0.00 | 35 | 1015.8 |
| 20260504185502 | 25 | 228 | 8.0 | 17.7 | 0.00 | 0.00 | 0.00 | 35 | 1015.8 |
| 20260504185002 | 24 | 199 | 3.2 | 16.1 | 0.00 | 0.00 | 0.00 | 35 | 1016.0 |
| 20260504184503 | 25 | 191 | 6.4 | 17.7 | 0.00 | 0.00 | 0.00 | 37 | 1015.9 |
| 20260504184006 | 24 | 210 | 6.4 | 17.7 | 0.00 | 0.00 | 0.00 | 34 | 1016.0 |
| 20260504183503 | 24 | 270 | 4.8 | 14.5 | 0.00 | 0.00 | 0.00 | 37 | 1016.0 |
| 20260504183003 | 24 | 266 | 8.0 | 14.5 | 0.00 | 0.00 | 0.00 | 40 | 1016.1 |
| 20260504182503 | 24 | 202 | 3.2 | 12.9 | 0.00 | 0.00 | 0.00 | 38 | 1016.1 |
| 20260504182005 | 24 | 198 | 1.6 | 12.9 | 0.00 | 0.00 | 0.00 | 38 | 1016.2 |
| 20260504181504 | 23 | 223 | 3.2 | 12.9 | 0.00 | 0.00 | 0.00 | 36 | 1016.2 |
| 20260504181004 | 24 | 209 | 4.8 | 14.5 | 0.00 | 0.00 | 0.00 | 35 | 1016.4 |
| 20260504180507 | 24 | 175 | 4.8 | 14.5 | 0.00 | 0.00 | 0.00 | 37 | 1016.4 |
| 20260504180010 | 23 | 261 | 3.2 | 9.7 | 0.00 | 0.00 | 0.00 | 37 | 1016.4 |
| 20260504175503 | 23 | 220 | 6.4 | 9.7 | 0.00 | 0.00 | 0.00 | 37 | 1016.5 |
| 20260504175001 | 23 | 78 | 1.6 | 9.7 | 0.00 | 0.00 | 0.00 | 39 | 1016.6 |
| 20260504174503 | 23 | 338 | 4.8 | 9.7 | 0.00 | 0.00 | 0.00 | 40 | 1016.7 |
| 20260504174005 | 23 | 98 | 0.0 | 11.3 | 0.00 | 0.00 | 0.00 | 39 | 1016.7 |
| 20260504173503 | 23 | 263 | 4.8 | 11.3 | 0.00 | 0.00 | 0.00 | 39 | 1016.8 |
| 20260504173005 | 23 | 234 | 6.4 | 11.3 | 0.00 | 0.00 | 0.00 | 36 | 1016.9 |
| 20260504172502 | 23 | 223 | 3.2 | 16.1 | 0.00 | 0.00 | 0.00 | 37 | 1016.9 |
| 20260504172004 | 22 | 153 | 4.8 | 16.1 | 0.00 | 0.00 | 0.00 | 41 | 1017.0 |
| 20260504171516 | 23 | 236 | 6.4 | 14.5 | 0.00 | 0.00 | 0.00 | 38 | 1017.1 |
| 20260504171005 | 23 | 153 | 3.2 | 14.5 | 0.00 | 0.00 | 0.00 | 40 | 1017.1 |
| 20260504170506 | 23 | 82 | 3.2 | 14.5 | 0.00 | 0.00 | 0.00 | 37 | 1017.1 |
| 20260504151004 | 20 | 254 | 4.8 | 14.5 | 0.00 | 0.00 | 0.00 | 50 | 1017.7 |
| 20260504150504 | 20 | 246 | 8.0 | 14.5 | 0.00 | 0.00 | 0.00 | 49 | 1017.8 |
| 20260504141008 | 18 | 191 | 8.0 | 14.5 | 0.00 | 0.00 | 0.00 | 55 | 1017.9 |
| 20260504140503 | 18 | 221 | 8.0 | 17.7 | 0.00 | 0.00 | 0.00 | 56 | 1018.0 |
| 20260504130509 | 15 | 215 | 4.8 | 8.0 | 0.00 | 0.00 | 0.00 | 67 | 1018.1 |
| 20260504110502 | 7 | 236 | 0.0 | 1.6 | 0.00 | 0.00 | 0.00 | 84 | 1017.4 |
| 20260504100503 | 7 | 236 | 0.0 | 1.6 | 0.00 | 0.00 | 0.00 | 82 | 1017.2 |
| 20260504082003 | 7 | 211 | 0.0 | 4.8 | 0.00 | 0.00 | 0.00 | 82 | 1017.3 |
| 20260504081518 | 7 | 211 | 1.6 | 4.8 | 0.00 | 0.00 | 0.00 | 82 | 1017.3 |
| 20260504081003 | 7 | 226 | 1.6 | 4.8 | 0.00 | 0.00 | 0.00 | 81 | 1017.3 |
| 20260504080504 | 7 | 212 | 0.0 | 3.2 | 0.00 | 0.00 | 0.00 | 82 | 1017.4 |
| 20260504050502 | 7 | 325 | 0.0 | 0.0 | 0.00 | 0.00 | 0.00 | 82 | 1018.6 |
| 20260504050021 | 7 | 326 | 0.0 | 0.0 | 0.00 | 0.00 | 0.00 | 82 | 1018.7 |
| 20260504045507 | 7 | 326 | 0.0 | 0.0 | 0.00 | 0.00 | 0.00 | 82 | 1018.7 |
| 20260504045007 | 7 | 325 | 0.0 | 0.0 | 0.00 | 0.00 | 0.00 | 82 | 1018.6 |
| 20260504044508 | 7 | 325 | 0.0 | 0.0 | 0.00 | 0.00 | 0.00 | 81 | 1018.7 |
| 20260504044002 | 8 | 325 | 0.0 | 3.2 | 0.00 | 0.00 | 0.00 | 81 | 1018.6 |
| 20260504043503 | 8 | 325 | 0.0 | 3.2 | 0.00 | 0.00 | 0.00 | 80 | 1018.6 |
| 20260504043016 | 8 | 325 | 0.0 | 3.2 | 0.00 | 0.00 | 0.00 | 81 | 1018.6 |
| 20260504042503 | 8 | 325 | 0.0 | 3.2 | 0.00 | 0.00 | 0.00 | 81 | 1018.6 |
| 20260504042007 | 8 | 325 | 0.0 | 0.0 | 0.00 | 0.00 | 0.00 | 82 | 1018.7 |
| 20260504041516 | 8 | 325 | 0.0 | 0.0 | 0.00 | 0.00 | 0.00 | 81 | 1018.8 |
| 20260504041006 | 8 | 325 | 0.0 | 0.0 | 0.00 | 0.00 | 0.00 | 81 | 1018.9 |
| 20260504040507 | 8 | 325 | 0.0 | 0.0 | 0.00 | 0.00 | 0.00 | 80 | 1018.9 |
| 20260504040012 | 8 | 325 | 0.0 | 3.2 | 0.00 | 0.00 | 0.00 | 81 | 1018.9 |
| 20260504035507 | 8 | 325 | 0.0 | 3.2 | 0.00 | 0.00 | 0.00 | 82 | 1019.0 |
| 20260504035008 | 8 | 325 | 0.0 | 0.0 | 0.00 | 0.00 | 0.00 | 81 | 1019.0 |
| 20260504034508 | 8 | 325 | 0.0 | 0.0 | 0.00 | 0.00 | 0.00 | 82 | 1019.1 |
| 20260504034008 | 8 | 325 | 0.0 | 0.0 | 0.00 | 0.00 | 0.00 | 82 | 1019.2 |
| 20260504033508 | 8 | 325 | 0.0 | 3.2 | 0.00 | 0.00 | 0.00 | 82 | 1019.1 |
| 20260504033026 | 8 | 325 | 0.0 | 3.2 | 0.00 | 0.00 | 0.00 | 81 | 1019.1 |
| 20260504032503 | 8 | 325 | 0.0 | 3.2 | 0.00 | 0.00 | 0.00 | 81 | 1019.1 |
| 20260504032005 | 9 | 325 | 1.6 | 3.2 | 0.00 | 0.00 | 0.00 | 80 | 1019.1 |
| 20260504031507 | 9 | 325 | 0.0 | 3.2 | 0.00 | 0.00 | 0.00 | 80 | 1018.9 |
| 20260504031003 | 9 | 325 | 1.6 | 1.6 | 0.00 | 0.00 | 0.00 | 80 | 1019.0 |
| 20260504030505 | 9 | 325 | 1.6 | 1.6 | 0.00 | 0.00 | 0.00 | 80 | 1018.9 |
| 20260504030007 | 9 | 325 | 0.0 | 1.6 | 0.00 | 0.00 | 0.00 | 79 | 1018.9 |
| 20260504025502 | 9 | 325 | 0.0 | 1.6 | 0.00 | 0.00 | 0.00 | 79 | 1018.9 |
| 20260504025003 | 10 | 325 | 0.0 | 1.6 | 0.00 | 0.00 | 0.00 | 79 | 1018.8 |
| 20260504024510 | 10 | 325 | 0.0 | 1.6 | 0.00 | 0.00 | 0.00 | 79 | 1018.9 |
| 20260504024004 | 10 | 325 | 0.0 | 3.2 | 0.00 | 0.00 | 0.00 | 78 | 1018.8 |
| 20260504023503 | 10 | 325 | 0.0 | 3.2 | 0.00 | 0.00 | 0.00 | 78 | 1018.8 |
| 20260504023008 | 10 | 325 | 0.0 | 3.2 | 0.00 | 0.00 | 0.00 | 78 | 1018.8 |